Location: Godzisko
(49.9648°N, 19.4576°E)
Time: 07:43:14
(UTC+00:00)

Cosmos 1340 Rocket - Pass Details

Date: 20 April 2021
Orbit: 529 x 557 km, 81.2° (Epoch: 06 May)

Event Time Altitude Azimuth Distance (km) Brightness Sun altitude
Rises 00:45:18 0° 339° (NNW) 2,728 6.9 -22.8°
Reaches altitude 10° 00:47:38 10° 329° (NNW) 1,834 5.8 -22.6°
Enters shadow 00:50:00 26° 300° (WNW) 1,120 4.3 -22.3°
